sat.trackr.live / text

‹ back to catalog

YAOGAN-30 08C

NORAD 46809 · 2020-076C

PAYLOAD ACTIVE UNKNOWN

§ Identity

Operator
Country
PRC
Launch date
2020-10-26
Launch site
XICLF
Launch vehicle
Mass (kg)
RCS (m²)

External: N2YO · Heavens-Above · Gunter

§ Orbital elements

Epoch: 2026-09-13T05:25:00.484320Z

Period
95.81 min
Inclination
34.9958°
Eccentricity
0.0005602
Mean motion
15.03032807 rev/d
Perigee alt
553.7 km
Apogee alt
561.4 km
Semi-major
6,935.7 km
B*
1.1575e-4
RAAN
274.1465°
Arg perigee
124.4981°
Mean anomaly
235.6257°
Rev number
32,139

§ Raw data

YAOGAN-30 08C1 46809U 20076C   26256.22570005  .00001561  00000+0  11575-3 0  99982 46809  34.9958 274.1465 0005602 124.4981 235.6257 15.03032807321395

JSON: /api/v1/satellites/46809 · /tle

For live sub-satellite position, see the globe view (requires WebGL).

§ Visibility from observer

Set your observer location to see the next 7 days of passes ≥ 10°. The values pass through the URL so the page stays shareable.

No JS? Fill the form by hand. The geolocation button needs JavaScript.